GW5689 Weather Reports


Display with metric or nautical units.
time (UTC)temp
F
wind
direction
speed
MPH
gust
MPH
rain 1hr
in
rain 24hr
in
rain mn
in
humidity
%
barometer
mb
20260508002043 58 50 0.0 4.0 0.00 0.00 0.00 45 1010.3
20260508001538 59 199 5.0 7.0 0.00 0.00 0.00 43 1010.3
20260508001035 59 174 4.0 6.0 0.00 0.00 0.00 42 1009.9
20260508000531 59 191 1.0 3.0 0.00 0.00 0.00 42 1010.1
20260508000029 60 55 1.0 2.0 0.00 0.00 0.00 42 1010.1
20260507235525 60 218 2.0 6.0 0.00 0.00 0.00 41 1009.9
20260507235022 60 92 3.0 4.0 0.00 0.00 0.00 41 1009.9
20260507234519 60 160 2.0 4.0 0.00 0.00 0.00 41 1009.5
20260507234015 60 225 2.0 6.0 0.00 0.00 0.00 42 1009.4
20260507233512 61 48 0.0 2.0 0.00 0.00 0.00 43 1009.5
20260507233011 61 45 1.0 1.0 0.00 0.00 0.00 44 1009.6
20260507232507 61 51 0.0 3.0 0.00 0.00 0.00 44 1009.4
20260507232004 62 30 1.0 3.0 0.00 0.00 0.00 41 1009.3
20260507231500 62 222 5.0 7.0 0.00 0.00 0.00 41 1009.1
20260507230957 62 169 1.0 6.0 0.00 0.00 0.00 41 1009.2
20260507230454 63 52 1.0 4.0 0.00 0.00 0.00 41 1009.3
20260507225949 63 79 2.0 4.0 0.00 0.00 0.00 40 1009.0
20260507225446 63 165 3.0 6.0 0.00 0.00 0.00 40 1008.9
20260507224942 63 92 2.0 6.0 0.00 0.00 0.00 39 1008.8
20260507224438 63 310 2.0 6.0 0.00 0.00 0.00 41 1009.1
20260507223935 63 193 0.0 2.0 0.00 0.00 0.00 42 1008.8
20260507223431 63 187 3.0 4.0 0.00 0.00 0.00 41 1008.7
20260507222928 63 117 2.0 4.0 0.00 0.00 0.00 42 1008.7
20260507222425 63 168 1.0 4.0 0.00 0.00 0.00 41 1008.5
20260507221922 64 46 1.0 3.0 0.00 0.00 0.00 42 1008.5
20260507221418 65 81 0.0 4.0 0.00 0.00 0.00 42 1008.4
20260507220914 66 52 0.0 1.0 0.00 0.00 0.00 41 1008.4
20260507220412 65 35 4.0 8.0 0.00 0.00 0.00 39 1008.4
20260507215908 65 35 2.0 2.0 0.00 0.00 0.00 41 1008.1
20260507215405 65 68 2.0 2.0 0.00 0.00 0.00 41 1007.9
20260507214902 66 42 1.0 3.0 0.00 0.00 0.00 41 1008.1
20260507214400 67 140 4.0 4.0 0.00 0.00 0.00 38 1008.2
20260507213855 67 87 1.0 4.0 0.00 0.00 0.00 41 1008.0
20260507213352 67 156 2.0 6.0 0.00 0.00 0.00 38 1008.0
20260507212849 68 28 2.0 6.0 0.00 0.00 0.00 38 1008.2
20260507212345 69 177 2.0 3.0 0.00 0.00 0.00 39 1008.0
20260507211842 70 179 1.0 4.0 0.00 0.00 0.00 38 1008.0
20260507211339 70 54 0.0 4.0 0.00 0.00 0.00 37 1008.0
20260507210835 70 252 3.0 4.0 0.00 0.00 0.00 37 1007.6
20260507210332 70 328 1.0 3.0 0.00 0.00 0.00 36 1007.7
20260507205829 70 314 2.0 3.0 0.00 0.00 0.00 36 1008.0
20260507205326 69 29 1.0 4.0 0.00 0.00 0.00 39 1008.0
20260507204822 69 81 1.0 4.0 0.00 0.00 0.00 40 1007.9
20260507204319 68 44 0.0 3.0 0.00 0.00 0.00 40 1007.8
20260507203817 70 21 2.0 3.0 0.00 0.00 0.00 39 1007.7
20260507203315 72 204 4.0 6.0 0.00 0.00 0.00 35 1007.9
20260507202811 70 35 1.0 1.0 0.00 0.00 0.00 39 1007.7
20260507202307 71 42 2.0 4.0 0.00 0.00 0.00 38 1007.6
20260507201802 71 358 2.0 3.0 0.00 0.00 0.00 43 1008.0
20260507201258 70 41 0.0 1.0 0.00 0.00 0.00 51 1007.6
20260507200755 69 52 1.0 2.0 0.00 0.00 0.00 51 1007.7
20260507200251 69 58 0.0 1.0 0.00 0.00 0.00 52 1007.8
20260507195747 68 130 1.0 3.0 0.00 0.00 0.00 53 1007.9
20260507195245 65 49 0.0 1.0 0.00 0.00 0.00 55 1008.1
20260507194742 65 130 2.0 2.0 0.00 0.00 0.00 56 1008.1
20260507194238 65 59 0.0 0.0 0.00 0.00 0.00 55 1008.1
20260507193735 65 143 0.0 1.0 0.00 0.00 0.00 57 1008.1
20260507193231 65 42 2.0 2.0 0.00 0.00 0.00 56 1008.2
20260507192727 66 61 1.0 1.0 0.00 0.00 0.00 53 1008.2
20260507192224 66 52 0.0 0.0 0.00 0.00 0.00 53 1008.3
20260507191720 68 53 0.0 1.0 0.00 0.00 0.00 47 1008.5
20260507191218 66 51 0.0 1.0 0.00 0.00 0.00 49 1008.5
20260507190714 65 49 0.0 1.0 0.00 0.00 0.00 49 1008.4
20260507190213 65 66 1.0 2.0 0.00 0.00 0.00 51 1008.4
20260507185711 65 88 0.0 1.0 0.00 0.00 0.00 48 1008.2
20260507185208 66 45 1.0 2.0 0.00 0.00 0.00 49 1008.7
20260507184705 66 65 0.0 3.0 0.00 0.00 0.00 48 1008.7
20260507184203 65 115 2.0 2.0 0.00 0.00 0.00 50 1008.5
20260507183659 67 10 1.0 2.0 0.00 0.00 0.00 49 1008.5
20260507183156 67 77 1.0 2.0 0.00 0.00 0.00 49 1008.6
20260507182654 67 139 3.0 4.0 0.00 0.00 0.00 47 1008.6
20260507182149 68 48 1.0 3.0 0.00 0.00 0.00 48 1008.6
20260507181646 66 24 1.0 2.0 0.00 0.00 0.00 50 1008.8
20260507181142 64 154 1.0 2.0 0.00 0.00 0.00 52 1008.6
20260507180638 64 52 0.0 2.0 0.00 0.00 0.00 51 1009.0
20260507180136 64 62 2.0 2.0 0.00 0.00 0.00 51 1009.0
20260507175631 64 137 1.0 2.0 0.00 0.00 0.00 51 1009.1
20260507175129 63 49 0.0 1.0 0.00 0.00 0.00 53 1009.2
20260507174626 63 60 1.0 2.0 0.00 0.00 0.00 56 1009.4
20260507174124 62 49 0.0 1.0 0.00 0.00 0.00 55 1009.2
20260507173621 62 173 2.0 3.0 0.00 0.00 0.00 56 1009.5
20260507173118 62 50 0.0 1.0 0.00 0.00 0.00 53 1009.6
20260507172614 63 63 0.0 0.0 0.00 0.00 0.00 55 1009.7
20260507172111 63 44 2.0 3.0 0.00 0.00 0.00 55 1010.1
20260507171606 63 53 1.0 3.0 0.00 0.00 0.00 54 1009.8
20260507171103 63 177 1.0 3.0 0.00 0.00 0.00 55 1009.8
20260507170600 63 37 1.0 1.0 0.00 0.00 0.00 56 1009.9
20260507170057 63 170 1.0 2.0 0.00 0.00 0.00 53 1010.1
20260507165552 64 52 1.0 4.0 0.00 0.00 0.00 54 1010.2
20260507165044 65 41 0.0 2.0 0.00 0.00 0.00 52 1010.2
20260507164540 66 35 0.0 1.0 0.00 0.00 0.00 49 1010.5
20260507164037 66 72 2.0 4.0 0.00 0.00 0.00 53 1010.4
20260507163534 63 13 1.0 4.0 0.00 0.00 0.00 56 1010.4
20260507163032 62 85 2.0 4.0 0.00 0.00 0.00 58 1010.5
20260507162526 64 105 0.0 4.0 0.00 0.00 0.00 52 1010.7
20260507162023 63 59 1.0 7.0 0.00 0.00 0.00 57 1010.5
20260507161520 62 48 1.0 6.0 0.00 0.00 0.00 58 1010.6
20260507161017 61 31 1.0 4.0 0.00 0.00 0.00 60 1011.1
20260507160512 64 212 2.0 3.0 0.00 0.00 0.00 56 1010.9
20260507160009 62 60 2.0 4.0 0.00 0.00 0.00 58 1011.2
20260507155504 60 54 1.0 3.0 0.00 0.00 0.00 62 1011.0
20260507155002 59 216 2.0 3.0 0.00 0.00 0.00 61 1011.1
20260507154458 59 35 1.0 2.0 0.00 0.00 0.00 63 1011.3
20260507153955 60 61 1.0 3.0 0.00 0.00 0.00 63 1011.3
20260507153452 60 4 1.0 3.0 0.00 0.00 0.00 60 1011.2
20260507152949 60 53 1.0 2.0 0.00 0.00 0.00 61 1011.1
20260507152444 60 38 3.0 8.0 0.00 0.00 0.00 60 1011.5
20260507151941 60 126 1.0 2.0 0.00 0.00 0.00 60 1011.2
20260507151437 58 59 0.0 2.0 0.00 0.00 0.00 63 1011.4
20260507150934 60 49 1.0 3.0 0.00 0.00 0.00 63 1011.5
20260507150431 60 263 2.0 2.0 0.00 0.00 0.00 61 1011.6
20260507145927 58 79 1.0 2.0 0.00 0.00 0.00 66 1011.6
20260507145423 58 82 1.0 2.0 0.00 0.00 0.00 66 1012.0
20260507144921 58 102 1.0 2.0 0.00 0.00 0.00 66 1011.8
20260507144417 55 57 0.0 1.0 0.00 0.00 0.00 69 1011.9
20260507143914 55 57 0.0 1.0 0.00 0.00 0.00 70 1011.8
20260507143412 54 52 0.0 1.0 0.00 0.00 0.00 72 1012.1
20260507142908 54 52 0.0 0.0 0.00 0.00 0.00 72 1012.2
20260507142404 53 48 0.0 0.0 0.00 0.00 0.00 76 1012.4
20260507141901 53 37 1.0 2.0 0.00 0.00 0.00 75 1012.5
20260507141357 53 30 0.0 2.0 0.00 0.00 0.00 75 1012.5
20260507140854 53 56 0.0 2.0 0.00 0.00 0.00 77 1012.4
20260507140351 53 52 0.0 2.0 0.00 0.00 0.00 76 1012.3
20260507135849 53 61 0.0 1.0 0.00 0.00 0.00 77 1012.6
20260507135345 53 44 0.0 2.0 0.00 0.00 0.00 78 1012.5
20260507134843 53 52 0.0 2.0 0.00 0.00 0.00 79 1012.4
20260507134339 53 58 0.0 0.0 0.00 0.00 0.00 78 1012.7
20260507133835 53 43 1.0 2.0 0.00 0.00 0.00 78 1012.6
20260507133330 53 41 0.0 1.0 0.00 0.00 0.00 79 1012.6
20260507132829 53 84 0.0 0.0 0.00 0.00 0.00 79 1013.1
20260507132325 53 45 2.0 2.0 0.00 0.00 0.00 80 1012.8
20260507131823 53 67 1.0 2.0 0.00 0.00 0.00 80 1013.0
20260507131319 53 42 0.0 0.0 0.00 0.00 0.00 82 1013.0
20260507130816 53 52 0.0 2.0 0.00 0.00 0.00 81 1013.0
20260507130313 53 56 0.0 1.0 0.00 0.00 0.00 82 1013.0
20260507125812 53 45 0.0 1.0 0.00 0.00 0.00 81 1012.8
20260507125309 53 48 0.0 0.0 0.00 0.00 0.00 82 1013.0
20260507124806 53 58 0.0 1.0 0.00 0.00 0.00 81 1012.8
20260507124302 53 47 0.0 2.0 0.00 0.00 0.00 81 1012.8
20260507123801 53 55 0.0 0.0 0.00 0.00 0.00 81 1012.6
20260507123258 53 54 1.0 1.0 0.00 0.00 0.00 80 1012.7
20260507122754 53 60 1.0 1.0 0.00 0.00 0.00 80 1012.5
20260507122249 53 39 0.0 1.0 0.00 0.00 0.00 81 1012.5
20260507121746 53 31 1.0 1.0 0.00 0.00 0.00 81 1012.5
20260507121241 53 50 1.0 3.0 0.00 0.00 0.00 81 1012.4
20260507120738 53 74 1.0 1.0 0.00 0.00 0.00 80 1012.3
20260507120235 53 35 0.0 1.0 0.00 0.00 0.00 82 1012.2
20260507115731 53 48 0.0 0.0 0.00 0.00 0.00 84 1012.4
20260507115227 52 46 0.0 0.0 0.00 0.00 0.00 84 1012.3
20260507114722 52 58 0.0 0.0 0.00 0.00 0.00 84 1012.2
20260507114220 52 53 0.0 0.0 0.00 0.00 0.00 84 1012.3
20260507113718 52 56 0.0 0.0 0.00 0.00 0.00 85 1012.2
20260507113214 52 55 0.0 0.0 0.00 0.00 0.00 85 1012.2
20260507112712 52 55 0.0 0.0 0.00 0.00 0.00 85 1012.1
20260507112209 52 72 0.0 1.0 0.00 0.00 0.00 86 1011.8
20260507111706 52 56 0.0 0.0 0.00 0.00 0.00 86 1012.1
20260507111203 52 55 0.0 1.0 0.00 0.00 0.00 86 1012.1
20260507110658 52 66 0.0 1.0 0.00 0.00 0.00 85 1011.9
20260507110156 51 58 0.0 1.0 0.00 0.00 0.00 87 1011.8
20260507105653 51 42 0.0 0.0 0.00 0.00 0.00 88 1012.1
20260507105148 51 49 0.0 0.0 0.00 0.00 0.00 88 1011.8
20260507104646 51 45 0.0 0.0 0.00 0.00 0.00 89 1011.9
20260507104142 51 45 0.0 0.0 0.00 0.00 0.00 89 1011.8
20260507103638 51 47 0.0 0.0 0.00 0.00 0.00 90 1011.9
20260507103135 50 44 0.0 0.0 0.00 0.00 0.00 89 1011.9
20260507102632 50 49 0.0 0.0 0.00 0.00 0.00 90 1011.8
20260507102128 50 49 0.0 0.0 0.00 0.00 0.00 90 1011.7
20260507101624 50 48 0.0 0.0 0.00 0.00 0.00 89 1011.7
20260507101120 50 48 0.0 0.0 0.00 0.00 0.00 90 1011.8
20260507100618 50 53 0.0 0.0 0.00 0.00 0.00 89 1011.8
20260507100115 50 51 0.0 0.0 0.00 0.00 0.00 89 1011.4
20260507095613 50 48 0.0 0.0 0.00 0.00 0.00 89 1011.6
20260507095109 50 52 0.0 0.0 0.00 0.00 0.00 89 1011.7
20260507094605 50 50 0.0 0.0 0.00 0.00 0.00 89 1011.6
20260507094103 50 54 0.0 0.0 0.00 0.00 0.00 89 1011.2
20260507093600 50 54 0.0 0.0 0.00 0.00 0.00 88 1011.3
20260507093059 51 47 0.0 0.0 0.00 0.00 0.00 87 1011.5
20260507092555 51 48 0.0 0.0 0.00 0.00 0.00 87 1011.4
20260507092051 51 50 0.0 0.0 0.00 0.00 0.00 86 1011.4
20260507091548 51 53 0.0 0.0 0.00 0.00 0.00 86 1011.5
20260507091044 51 58 0.0 0.0 0.00 0.00 0.00 86 1011.5
20260507090540 52 57 0.0 0.0 0.00 0.00 0.00 85 1011.6
20260507090037 52 48 0.0 2.0 0.00 0.00 0.00 84 1011.5
20260507085535 52 47 0.0 1.0 0.00 0.00 0.00 83 1011.3
20260507085031 52 100 0.0 2.0 0.00 0.00 0.00 82 1011.3
20260507084528 53 56 0.0 0.0 0.00 0.00 0.00 82 1011.3
20260507084025 53 90 0.0 1.0 0.00 0.00 0.00 83 1011.0
20260507083521 53 44 0.0 2.0 0.00 0.00 0.00 83 1010.8
20260507083018 53 54 0.0 0.0 0.00 0.00 0.00 82 1011.0
20260507082514 53 53 0.0 1.0 0.00 0.00 0.00 83 1011.0
20260507082010 53 52 0.0 1.0 0.00 0.00 0.00 83 1011.3
20260507081507 53 60 0.0 1.0 0.00 0.00 0.00 83 1011.3
20260507081004 53 32 1.0 1.0 0.00 0.00 0.00 83 1011.4
20260507080459 53 46 0.0 0.0 0.00 0.00 0.00 84 1011.4
20260507075955 53 54 0.0 1.0 0.00 0.00 0.00 84 1011.5
20260507075452 54 34 1.0 1.0 0.00 0.00 0.00 83 1011.6
20260507074948 54 50 0.0 2.0 0.00 0.00 0.00 83 1011.7
20260507074445 54 65 1.0 2.0 0.00 0.00 0.00 84 1011.5
20260507073943 54 68 0.0 3.0 0.00 0.00 0.00 84 1011.1
20260507073439 54 68 1.0 2.0 0.00 0.00 0.00 84 1011.3
20260507072936 54 41 0.0 1.0 0.00 0.00 0.00 84 1011.2
20260507072434 54 54 0.0 0.0 0.00 0.00 0.00 84 1011.4
20260507071931 54 43 0.0 1.0 0.00 0.00 0.00 84 1011.0
20260507071428 54 50 0.0 1.0 0.00 0.00 0.00 85 1010.9
20260507070924 54 81 0.0 2.0 0.00 0.00 0.00 85 1011.0
20260507070422 54 49 0.0 3.0 0.00 0.00 0.00 84 1010.7
20260507065918 54 20 1.0 3.0 0.00 0.00 0.00 85 1011.1
20260507065415 54 117 2.0 2.0 0.00 0.00 0.00 85 1011.0
20260507064912 55 58 1.0 2.0 0.00 0.00 0.00 84 1011.1
20260507064410 55 53 1.0 4.0 0.00 0.00 0.00 85 1011.1
20260507063908 55 52 0.0 2.0 0.00 0.00 0.00 84 1011.1
20260507063405 55 32 2.0 2.0 0.00 0.00 0.00 84 1011.2
20260507062902 55 127 2.0 2.0 0.00 0.00 0.00 84 1011.2
20260507062359 56 22 2.0 4.0 0.00 0.00 0.00 84 1011.1
20260507061856 56 42 0.0 3.0 0.00 0.00 0.00 84 1011.3
20260507061354 56 26 1.0 3.0 0.00 0.00 0.00 84 1011.2
20260507060853 57 48 1.0 2.0 0.00 0.00 0.00 84 1011.3
20260507060349 57 57 0.0 1.0 0.00 0.00 0.00 84 1010.9
20260507055846 57 33 1.0 2.0 0.00 0.00 0.00 84 1011.3
20260507055340 57 61 1.0 3.0 0.00 0.00 0.00 84 1011.4
20260507054838 57 46 0.0 0.0 0.00 0.00 0.00 84 1011.6
20260507054334 58 52 1.0 2.0 0.00 0.00 0.00 84 1011.4
20260507053831 58 72 1.0 2.0 0.00 0.00 0.00 84 1011.1
20260507053329 58 111 1.0 3.0 0.00 0.00 0.00 84 1011.1
20260507052828 58 52 2.0 3.0 0.00 0.00 0.00 84 1011.1
20260507052324 58 72 1.0 4.0 0.00 0.00 0.00 84 1010.9
20260507051822 58 59 0.0 2.0 0.00 0.00 0.00 83 1010.7
20260507051319 59 57 0.0 1.0 0.00 0.00 0.00 84 1010.6
20260507050816 59 171 2.0 3.0 0.00 0.00 0.00 84 1010.9
20260507050312 59 165 2.0 2.0 0.00 0.00 0.00 84 1010.6
20260507045809 59 78 1.0 2.0 0.00 0.00 0.00 83 1011.1
20260507045307 59 70 0.0 1.0 0.00 0.00 0.00 83 1010.7
20260507044803 59 131 2.0 3.0 0.00 0.00 0.00 83 1010.4
20260507044259 59 114 1.0 2.0 0.00 0.00 0.00 84 1010.6
20260507043755 59 35 2.0 3.0 0.00 0.00 0.00 84 1010.7
20260507043252 60 54 0.0 1.0 0.00 0.00 0.00 85 1010.6
20260507042748 60 42 0.0 2.0 0.00 0.00 0.00 85 1010.5
20260507042243 60 19 0.0 2.0 0.00 0.00 0.00 85 1010.4
20260507041741 60 59 0.0 2.0 0.00 0.00 0.00 85 1010.4
20260507041237 60 42 1.0 3.0 0.00 0.00 0.00 85 1009.6
20260507040735 60 58 1.0 1.0 0.00 0.00 0.00 85 1010.1
20260507040230 60 43 0.0 0.0 0.00 0.00 0.00 85 1009.7
20260507035727 60 48 0.0 0.0 0.00 0.06 0.06 85 1009.5
20260507035222 60 60 0.0 0.0 0.00 0.06 0.06 84 1009.6
20260507034720 61 46 0.0 0.0 0.00 0.06 0.06 84 1010.2
20260507034217 61 56 0.0 0.0 0.00 0.06 0.06 82 1010.3
20260507033715 62 46 0.0 0.0 0.00 0.06 0.06 82 1010.8
20260507033212 62 195 4.0 6.0 0.00 0.06 0.06 81 1010.7
20260507032710 62 58 0.0 2.0 0.00 0.06 0.06 82 1010.7
20260507032205 62 52 0.0 2.0 0.00 0.06 0.06 82 1010.6
20260507031702 62 84 0.0 4.0 0.00 0.06 0.06 81 1010.9
20260507031159 62 70 1.0 1.0 0.00 0.06 0.06 81 1011.1
20260507030656 62 62 1.0 1.0 0.00 0.06 0.06 82 1010.6
20260507030154 62 109 1.0 2.0 0.00 0.06 0.06 83 1010.2
20260507025651 62 44 0.0 1.0 0.00 0.06 0.06 82 1010.1
20260507025147 62 58 0.0 0.0 0.00 0.06 0.06 82 1009.8
20260507024645 63 52 0.0 1.0 0.00 0.06 0.06 83 1010.2
20260507024143 63 50 0.0 0.0 0.00 0.06 0.06 82 1010.5
20260507023638 63 60 0.0 4.0 0.00 0.06 0.06 82 1010.6
20260507023136 63 34 0.0 2.0 0.00 0.06 0.06 82 1010.6
20260507022632 63 84 1.0 2.0 0.00 0.06 0.06 82 1010.2
20260507022128 62 39 1.0 2.0 0.00 0.06 0.06 84 1010.4
20260507021625 62 105 1.0 2.0 0.00 0.06 0.06 87 1010.3
20260507021120 62 46 0.0 0.0 0.00 0.06 0.06 86 1010.1
20260507020619 62 39 0.0 0.0 0.00 0.06 0.06 85 1009.9
20260507020114 63 48 0.0 0.0 0.00 0.06 0.06 85 1009.6
20260507015613 63 54 0.0 0.0 0.00 0.06 0.06 85 1009.3
20260507015110 63 57 0.0 0.0 0.00 0.06 0.06 85 1009.6
20260507014607 63 54 0.0 0.0 0.00 0.06 0.06 83 1009.7
20260507014102 64 58 0.0 1.0 0.00 0.06 0.06 82 1009.9
20260507013559 64 48 1.0 2.0 0.00 0.06 0.06 81 1009.5
20260507013056 64 50 0.0 1.0 0.00 0.06 0.06 80 1009.8
20260507012554 64 40 1.0 3.0 0.00 0.06 0.06 81 1009.9
20260507012049 64 199 1.0 2.0 0.00 0.06 0.06 81 1009.6
20260507011547 64 127 2.0 3.0 0.00 0.06 0.06 81 1009.5
20260507011038 63 46 0.0 0.0 0.00 0.06 0.06 83 1009.1
20260507010538 63 46 0.0 1.0 0.00 0.06 0.06 84 1009.1
20260507010034 64 358 1.0 1.0 0.00 0.06 0.06 82 1008.6
20260507005532 64 53 0.0 0.0 0.00 0.06 0.06 81 1009.0
20260507005028 65 117 2.0 3.0 0.00 0.06 0.06 80 1009.4
20260507004525 65 92 1.0 2.0 0.00 0.06 0.06 80 1009.5
20260507004023 65 80 0.0 2.0 0.00 0.06 0.06 79 1009.8
20260507003518 65 54 0.0 0.0 0.00 0.06 0.06 79 1009.9
20260507003013 65 56 1.0 2.0 0.00 0.06 0.06 79 1009.8
20260507002510 66 30 1.0 2.0 0.00 0.06 0.06 79 1009.7